Location: Penzberg
(47.7615°N, 11.3159°E)
Time: 11:05:03
(UTC+01:00)

ISS - Pass Details

Date: 12 January 2018
Orbit: 402 x 407 km, 51.6° (Epoch: 18 January)

Event Time Altitude Azimuth Distance (km) Brightness Sun altitude
Exits shadow 04:51:15 12° 85° (E) 1,364 -0.3 -31.1°
Drops below altitude 10° 04:51:30 10° 87° (E) 1,466 -0.1 -31.1°
Sets 04:53:38 0° 93° (E) 2,326 1.2 -30.7°
